Location: St. Louis
(38.6270°N, 90.1994°W)
Time: 12:40:27
(UTC-06:00)

deb Explorer IX - All Passes

Search period start: 30 November 2021 00:00
Search period end: 10 December 2021 00:00
Orbit: 546 x 1086 km, 38.8° (Epoch: 29 November)

Date Brightness Start Highest point End Pass type
(mag) Time Alt. Az. Time Alt. Az. Time Alt. Az.
30 Nov - 10:47:33 10° SSW 10:51:24 28° SSE 10:55:00 10° E daylight
30 Nov - 12:33:31 10° WSW 12:37:43 77° S 12:41:49 10° E daylight
30 Nov - 14:20:12 10° W 14:24:18 89° S 14:28:32 10° E daylight
30 Nov - 16:06:48 10° W 16:10:44 41° SSW 16:15:00 10° SE daylight
30 Nov - 17:55:21 10° SW 17:56:53 12° SW 17:58:28 10° SSW visible
01 Dec - 10:22:34 10° SSW 10:26:32 29° SSE 10:30:12 10° E daylight
01 Dec - 12:08:35 10° WSW 12:12:53 77° SSE 12:16:58 10° E daylight
01 Dec - 13:55:20 10° W 13:59:27 89° S 14:03:38 10° E daylight
01 Dec - 15:42:00 10° W 15:45:53 41° SSW 15:50:02 10° SE daylight
01 Dec - 17:30:41 10° SW 17:31:59 11° SW 17:33:18 10° SSW visible
02 Dec - 09:57:33 10° SW 10:01:39 29° SSE 10:05:23 10° E daylight
02 Dec - 11:43:38 10° WSW 11:48:01 77° S 11:52:07 10° E daylight
02 Dec - 13:30:27 10° W 13:34:36 89° S 13:38:44 10° E daylight
02 Dec - 15:17:10 10° W 15:21:01 41° SSW 15:25:04 10° SE daylight
02 Dec - 17:06:01 10° SW 17:07:05 11° SW 17:08:09 10° SSW visible
03 Dec - 09:32:29 10° SW 09:36:45 30° SSE 09:40:35 10° E daylight
03 Dec - 11:18:38 10° WSW 11:23:09 77° SSE 11:27:17 10° E daylight
03 Dec - 13:05:32 10° W 13:09:45 89° S 13:13:51 10° E daylight
03 Dec - 14:52:18 10° W 14:56:09 41° SSW 15:00:08 10° SE daylight
03 Dec - 16:41:22 10° SW 16:42:11 10° SW 16:43:00 10° SSW daylight
04 Dec - 09:07:24 10° SW 09:11:50 30° SSE 09:15:47 10° E daylight
04 Dec - 10:53:36 10° WSW 10:58:16 77° SSE 11:02:28 10° E daylight
04 Dec - 12:40:34 10° W 12:44:53 90° SSE 12:48:58 10° E daylight
04 Dec - 14:27:24 10° W 14:31:17 41° SSW 14:35:12 10° SE daylight
04 Dec - 16:16:40 10° SW 16:17:16 10° SW 16:17:53 10° SSW daylight
05 Dec - 08:42:16 10° SW 08:46:54 31° SSE 08:50:58 10° E daylight
05 Dec - 10:28:33 10° WSW 10:33:22 77° SSE 10:37:38 10° E daylight
05 Dec - 12:15:35 10° W 12:20:00 90° S 12:24:07 10° E daylight
05 Dec - 14:02:29 10° W 14:06:24 41° SSW 14:10:17 10° SE daylight
05 Dec - 15:51:55 10° SW 15:52:22 10° SW 15:52:48 10° SSW daylight
06 Dec - 08:17:07 10° SW 08:21:56 32° SSE 08:26:09 10° E daylight
06 Dec - 10:03:27 10° WSW 10:08:26 77° SSE 10:12:48 10° E daylight
06 Dec - 11:50:34 10° W 11:55:06 90° NNW 11:59:15 10° E daylight
06 Dec - 13:37:32 10° W 13:41:31 42° SSW 13:45:23 10° SE daylight
06 Dec - 15:27:01 10° SW 15:27:26 10° SW 15:27:50 10° SSW daylight
07 Dec - 07:51:57 10° SW 07:56:57 33° SSE 08:01:19 10° E daylight
07 Dec - 09:38:19 10° WSW 09:43:29 77° SSE 09:47:58 10° E daylight
07 Dec - 11:25:31 10° W 11:30:11 90° NNW 11:34:24 10° E daylight
07 Dec - 13:12:33 10° W 13:16:37 43° SSW 13:20:30 10° SE daylight
07 Dec - 15:01:59 10° SW 15:02:31 10° SW 15:03:02 10° SSW daylight
08 Dec - 07:26:46 10° SW 07:31:56 33° SSE 07:36:28 10° E daylight
08 Dec - 09:13:10 10° WSW 09:18:32 77° SSE 09:23:07 10° E daylight
08 Dec - 11:00:25 10° W 11:05:15 90° NNW 11:09:32 10° E daylight
08 Dec - 12:47:32 10° W 12:51:43 43° SSW 12:55:37 10° SE daylight
08 Dec - 14:36:51 10° SW 14:37:35 10° SW 14:38:19 10° SSW daylight
09 Dec - 07:01:32 10° SW 07:06:54 34° SSE 07:11:36 10° E daylight
09 Dec - 08:47:59 10° WSW 08:53:31 77° SSE 08:58:16 10° E daylight
09 Dec - 10:35:18 10° W 10:40:18 89° N 10:44:41 10° E daylight
09 Dec - 12:22:29 10° W 12:26:47 44° SSW 12:30:44 10° SE daylight
09 Dec - 14:11:40 10° SW 14:12:38 11° SW 14:13:37 10° SSW daylight
